Regional Weather Roundup
Issued by NWS

Home | Current Version | Previous Version | Graphics & Text | Print | Product List | Glossary On
Versions: 1 2 3 4 5 6 7 8 9 10 11 12 13 14 15 16 17 18 19 20 21 22 23 24 25 26 27 28 29 30 31 32 33 34 35 36 37 38 39 40 41 42 43 44 45 46 47 48 49 50
141
ASUS43 KBIS 260302
RWRND

NORTH DAKOTA REGIONAL WEATHER ROUNDUP
NATIONAL WEATHER SERVICE BISMARCK ND
1000 PM CDT WED MAY 25 2016

NOTE: "FAIR" INDICATES FEW OR NO CLOUDS BELOW 12,000 FEET WITH NO
SIGNIFICANT WEATHER AND/OR OBSTRUCTIONS TO VISIBILITY.


NDZ001>003-009>011-017-260400-
NORTHWEST NORTH DAKOTA

CITY           SKY/WX    TMP DP  RH WIND       PRES   REMARKS
WILLISTON      CLEAR     49  46  90 N5        29.81F
MINOT          CLOUDY    59  55  87 S5        29.75S
MINOT AFB      MOCLDY    58  55  89 S6        29.74S
$$

NDZ018>021-031>035-040>046-260400-
SOUTHWEST NORTH DAKOTA

CITY           SKY/WX    TMP DP  RH WIND       PRES   REMARKS
BISMARCK       CLOUDY    59  53  80 NW12      29.78S
DICKINSON      CLEAR     46  41  82 W5        29.81S
GARRISON         N/A     57  52  83 NW14      29.77S
HETTINGER ARPT CLEAR     47  40  76 NW5       29.85R
$$

NDZ004>008-012>016-024-026-027-054-260400-
NORTHEAST NORTH DAKOTA

CITY           SKY/WX    TMP DP  RH WIND       PRES   REMARKS
GRAND FORKS    CLOUDY    59  57  93 W10       29.69R
GRND FRKS AFB  CLOUDY    58  58 100 NW10      29.70R
DEVILS LAKE    CLOUDY    59  55  87 E3        29.75F
$$

NDZ022-023-025-028>030-036>039-047>053-260400-
SOUTHEAST NORTH DAKOTA

CITY           SKY/WX    TMP DP  RH WIND       PRES   REMARKS
FARGO          CLEAR     60  56  86 SW6       29.73S
JAMESTOWN      RAIN      59  57  93 S8        29.75S
$$





USA.gov is the U.S. government's official web portal to all federal, state and local government web resources and services.